Regional Weather Roundup
Issued by NWS

Home | Current Version | Previous Version | Text Only | Print | Product List | Glossary On
Versions: 1 2 3 4 5 6 7 8 9 10 11 12 13 14 15 16 17 18 19 20 21 22 23 24 25 26 27 28 29 30 31 32 33 34 35 36 37 38 39 40 41 42 43 44 45 46 47 48 49 50
000
ASUS44 KLUB 170101
RWRTX
WEST TEXAS WEATHER ROUNDUP
NATIONAL WEATHER SERVICE LUBBOCK TX
800 PM CDT WED APR 16 2014

NOTE: "FAIR" INDICATES FEW OR NO CLOUDS BELOW 12,000 FEET WITH NO
SIGNIFICANT WEATHER AND/OR OBSTRUCTIONS TO VISIBILITY.

TXZ004-006>008-010-012-014-016-OKZ002-170200-
TEXAS PANHANDLE/OKLAHOMA PANHANDLE

CITY           SKY/WX    TMP DP  RH WIND       PRES   REMARKS
AMARILLO       CLOUDY    68  16  13 E21G31    29.80R
BORGER         MOCLDY    66  27  23 NE22      29.83R
DALHART        CLOUDY    60  26  27 NE21G30   29.89R
GUYMON         PTCLDY    61  26  26 NE16      29.89R
$$

TXZ026-029-035-045-048-170200-
SOUTHERN PANHANDLE/SOUTH PLAINS/ROLLING PLAINS

CITY           SKY/WX    TMP DP  RH WIND       PRES   REMARKS
CHILDRESS      CLEAR     72  22  15 SE13      29.78R
LUBBOCK        MOCLDY    77  16  10 S20G28    29.71S
$$

TXZ052-054-060>062-072-078-127-140-154-169-170200-
PERMIAN BASIN/CONCHO VALLEY/BIG COUNTRY/EDWARDS PLATEAU

CITY           SKY/WX    TMP DP  RH WIND       PRES   REMARKS
ABILENE        CLEAR     71  29  21 S22G29    29.81R
BROWNWOOD      CLEAR     68  34  28 SE10G16   29.87R
JUNCTION       CLOUDY    68  37  32 S15       29.88R
MIDLAND        CLEAR     73  30  20 S22       29.76R
ODESSA         CLEAR     73  27  18 SE20      29.77R
SAN ANGELO     CLEAR     71  31  22 S16G24    29.82R
WINK           CLEAR     77  24  14 SE23G30   29.70S
$$

TXZ055-058-074-075-080-082-170200-
FAR WEST/SOUTHWEST MOUNTAINS/TRANS PECOS

CITY           SKY/WX    TMP DP  RH WIND       PRES   REMARKS
DRYDEN           N/A     70  35  27 E18G24    29.79F
EL PASO        PTCLDY    82   1   4 W12G20    29.73S
FORT STOCKTON  PTCLDY    73  26  17 SE20G31   29.74R
GUADALUPE PASS CLEAR     71   2   6 SW20G29   29.85R
MARFA          PTCLDY    73  16  11 SW8       29.87R
PECOS          PTCLDY    80  27  14 E20       29.67F
PRESIDIO       FAIR      83  17   8 CALM      29.73S
$$

TXZ014-016-019-021>030-083-170200
TEXAS TECH WEST TEXAS MESONET/TEXAS PANHANDLE/NORTHERN SOUTH PLAINS

CITY           SKY/WX    TMP DP  RH WIND       PRES   REMARKS
ABERNATHY 5ENE   N/A     76  13   9 S17       29.71S
AMARILLO 9NNE    N/A     69  19  15 E21       29.79S
AMARILLO 7SSE    N/A     69  18  14 E22       29.79S
AMHERST 1NE      N/A     77   2   5 SW8       29.70S
BOOTLEG 11WNW    N/A     65  16  15 NE23      29.79S
CANADIAN 6E      N/A     69  20  16 E7        29.83R
CAPROCK CYN SP   N/A     73  21  14 E15       29.75R
CHILDRESS 2NNE   N/A     72  22  15 SE16      29.77S
CLARENDON 2WSW   N/A     69  18  14 E12       29.79R
CLAUDE 12SW      N/A     68  19  15 E14       29.78R
DIMMITT 2NE      N/A     74  15  10 NE24      29.71S
FLOYDADA 2NNE    N/A     73  17  12 SE15      29.73S
FRIONA 2NE       N/A     68  15  13 NE18      29.74S
GOODLETT 3W      N/A     72  26  17 SE13      29.78R
HART 3N          N/A     78  17  10 SW3       29.70S
HEREFORD 2NW     N/A     71  14  11 E15       29.74F
MCLEAN 1E        N/A     67  17  14 E8        29.81R
MEMPHIS 1NE      N/A     74  18  12 E12       29.77S
MULESHOE 2SSW    N/A     76   2   5 SW10      29.71S
OLTON 6S         N/A     75  14   9 S16       29.70R
PALO DURO SP     N/A     70  19  14 E14       29.78S
PAMPA 2E         N/A     64  17  16 E10       29.84R
PLAINVIEW 1S     N/A     76  14   9 S13       29.70S
SILVERTON 7ESE   N/A     71  20  14 E18       29.76R
TULIA 2ENE       N/A     72  21  14 E20       29.72R
TURKEY 2WSW      N/A     74  21  13 E17       29.74R
UMBARGER 3NNE    N/A     70  16  12 E17       29.77S
$$

TXZ033>036-039>041-045>048-170200
TEXAS TECH WEST TEXAS MESONET/SOUTH PLAINS

CITY           SKY/WX    TMP DP  RH WIND       PRES   REMARKS
AIKEN 3WSW       N/A     72  25  17 SE16      29.73S
ANDREWS 2NE      N/A     76  20  12 SE16      29.75R
ANTON 6SSW       N/A     78  12   8 S18       29.70S
BROWNFIELD 2S    N/A     76  16  10 S16       29.72S
DENVR CTY 7WNW   N/A     77  13   8 S12       29.72F
GAIL 2ESE        N/A     75  25  15 SE17      29.75R
LAMESA 2SE       N/A     74  22  14 SE15      29.75S
LEVELLAND 4S     N/A     78   9   7 S16       29.71S
LUBBOCK 3WNW     N/A     78  13   8 SE16      29.71S
MORTON 1ENE      N/A     77  -3   4 SW10      29.72R
ODONNELL 1N      N/A     75  19  12 S14       29.75R
PLAINS 3N        N/A     78  10   7 S13       29.73S
RALLS 1SE        N/A     74  20  13 S25       29.74S
REESE CENTER     N/A     78  13   8 S21       29.71S
SEAGRAVES 1SW    N/A     78  16   9 S14       29.72S
SEMINOLE 2NNE    N/A     77  18  10 SE15      29.73S
SLATON 2NE       N/A     75  19  12 SE20      29.73S
SNYDER 3E        N/A     74  25  16 SE17      29.76S
SUNDOWN 8SW      N/A     78  11   8 S14       29.72S
TAHOKA 3NNE      N/A     75  19  12 SE17      29.73S
WOLFFORTH 6SSW   N/A     78  15   9 S17       29.73R
$$

TXZ031-032-036>038-042>044-170200-
TEXAS TECH WEST TEXAS MESONET/ROLLING PLAINS

CITY           SKY/WX    TMP DP  RH WIND       PRES   REMARKS
ASPERMONT 3NE    N/A     76  26  15 SE14      29.77R
FLUVANNA 3WNW    N/A     74  22  14 S18       29.76R
GRAHAM 5SSW      N/A     75  21  13 S20       29.75R
GUTHRIE 10WSW    N/A     76  24  15 SE15      29.74R
HASKELL 1NW      N/A     73  27  18 SE13      29.78R
JAYTON 1SSE      N/A     76  24  14 SE15G25   29.76R
KNOX CITY 3NW    N/A     74  26  17 SE17      29.78R
LK A HENRY 1NW   N/A     76  25  15 S12       29.75R
NORTHFIELD 1S    N/A     74  22  13 SE15      29.75R
ODELL 4ENE       N/A     69  29  22 SE13      29.83R
PADUCAH 10SW     N/A     74  22  14 SE15      29.75S
POST 1NE         N/A     76  22  13 SE14      29.74R
RRING SPRGS 3N   N/A     74  21  13 SE16      29.75R
SEYMOUR 3NW      N/A     71  31  23 SE15      29.81R
SPUR 1W          N/A     76  20  12 S15       29.73S
WEINERT 2NNE     N/A     73  31  21 S20       29.79R
WHITE RVR 6NE    N/A     75  21  13 SE21      29.73S
$$

TXZ052-054-060>062-072-078-127-140-154-169-170200-
TEXAS TECH WEST TEXAS MESONET/PERMIAN BASIN/
CONCHO VALLEY/BIG COUNTRY/EDWARDS PLATEAU

CITY           SKY/WX    TMP DP  RH WIND       PRES   REMARKS
COYANOSA 2N      N/A     77  26  14 E22       29.71R
JUNCTION 1SSW    N/A     68  38  33 S9        29.88R
MERTZON 3NNE     N/A     70  32  24 SE13      29.83R
SAN ANGELO 7NW   N/A     72  28  19 S14       29.82R
STRLNG CT 4WSW   N/A     72  31  22 SE17      29.80S
ST LAWRNCE 5SW   N/A     70  30  22 SE25      29.79S
WALL 1E          N/A     72  30  21 SE18      29.82S
$$

TXZ055-058-074-075-080-082-170200-
TEXAS TECH WEST TEXAS MESONET/FAR WEST/SOUTHWEST MOUNTAINS/TRANS PECOS

CITY           SKY/WX    TMP DP  RH WIND       PRES   REMARKS
PRSMN GAP BBNP   N/A     75  28  17 NE18      29.78S
$$



USA.gov is the U.S. government's official web portal to all federal, state and local government web resources and services.